Showing default

POLYTECH UNIVERSE-4, 61747

Orbit data source: Space-Track

POLYTECH UNIVERSE-4, 61747 is a payload satellite owned by Polytech (CIS) in SSO that was launched on Mon, 04 Nov 2024 UTC via a SOYUZ-2-1B launch vehicle from the Vostochny Cosmodrome (VOSTO). Payload-class satellites include a variety of spacecraft equipped with specific instruments for various scientific and technological missions. These include communications satellites like Starlink; space stations such as the ISS; scientific satellites like the Hubble; Earth observation satellites from companies like Planet Labs, Umbra, and HawkEye 360; GPS; miniature CubeSats for education and research; and military/defense satellites.

Loading next visibility...
Identifier
61747, 2024-199N
Orbit
SSO
Country
Flag of CISCIS
Related business
Manufacturer
STTs
Mission
Operational Amateur Science
Bus & Motor
CUBESAT 3U, Unknown motor
Mass
5.07 kg wet, 5.07 kg dry
Launch date (UTC)
2024-11-04 (1 year ago)
Launch vehicle
SOYUZ-2-1B
Launch site
Vostochny Cosmodrome (VOSTO)
Object type
Payload
Rocket body
Debris
Shape & HBR
Box, 0.1 m
Radar Cross Section
0.035 m², Small (<0.1 m²)

Expand to show TLE details & history
Last TLE update: 9 hours ago

TLE from 9 hours ago
0 POLYTECH UNIVERSE-4
1 61747U 24199N   26037.77990368  .00029940  00000-0  73417-3 0  9996
2 61747  97.3206 270.4283 0011379  40.1799 320.0287 15.40605605117251
Epoch: 2026-02-06T18:43Z
TLE epoch observation values (Epoch: 2026-02-06T18:43:03.677Z)
Latitude
-0.00003°
Longitude
-147.24989°
Altitude
441.494 km
Speed
7.65 km/s
True Right ascension
18h 01m 42s
True Declination
0° 00' 00"
Sunlit
Object was in daylight at epoch
Visualization orbit readout
Latitude
Unknown
Longitude
Unknown
Altitude
Unknown
Speed
Unknown
Apparent Right ascension
Unknown
Apparent Declination
Unknown
Sunlit
N/A
Visualization observer readout
Local Sidereal Time
06:17:10
Azimuth
Unknown
Elevation
Unknown
Doppler factor
Unknown
Orbital elements
Apogee altitude
449.015 km
Perigee altitude
433.496 km
Semi-major axis
6,819.393 km
Eccentricity
0.00114
Inclination
97.3206°
RAAN
270.4283°
Arg. of periapsis
40.1799°
True anomaly
319.94484°
Mean anomaly
320.0287°
Eccentric anomaly
319.98678°
Mean motion
3.85411 °/min
Orbital period
93.41 mins
BSTAR
0.00073417
Loading maneuver chart data...
Computing Atmospheric mass density...
Loading historical data...
Loading historical data...
Loading historical data...
Loading historical data...
Loading historical data...
Loading historical data...
Loading historical data...

Documentation

Showing up to 5 results
|